When you browse on this site, cookies collect data to enhance your experience and personalize the content and advertising you see.
Visit our Privacy Policy to learn more. By continuing to use the site, you agree to this use of cookies and data.
  • en Suisse
  • Liste des pays
  • À 7 jours
  • Température de l'eau
  • Carte satellitaire
  • Carte météo
  • Widgets météo
  • user-avatar
    Se connecter

    Météo par heure à Borisovskie Vyselki

    Ce jour, 22 Juillet, Lundi

    Heure Température Précipitation Vent Pression Humidité
    00:00 +16°C° 0 mm 2 m/s 743 mmHg 91%
    01:00 +16°C° 0 mm 1 m/s 744 mmHg 91%
    02:00 +15°C° 0 mm 1 m/s 744 mmHg 91%
    03:00 +15°C° 0 mm 1 m/s 744 mmHg 91%
    04:00 +15°C° 0 mm 1 m/s 744 mmHg 90%
    05:00 +16°C° 0 mm 1 m/s 744 mmHg 90%
    06:00 +16°C° 0 mm 1 m/s 744 mmHg 89%
    07:00 +19°C° 0 mm 1 m/s 744 mmHg 83%
    08:00 +20°C° 0 mm 1 m/s 744 mmHg 77%
    09:00 +22°C° 0 mm 1 m/s 744 mmHg 71%
    10:00 +23°C° 0 mm 1 m/s 744 mmHg 66%
    11:00 +24°C° 0 mm 1 m/s 744 mmHg 61%
    12:00 +25°C° 0 mm 2 m/s 744 mmHg 56%
    13:00 +25°C° 0.1 mm 2 m/s 743 mmHg 55%
    14:00 +25°C° 0.1 mm 2 m/s 743 mmHg 54%
    15:00 +26°C° 0.1 mm 2 m/s 743 mmHg 53%
    16:00 +26°C° 0 mm 2 m/s 743 mmHg 56%
    17:00 +26°C° 0 mm 2 m/s 743 mmHg 59%
    18:00 +25°C° 0 mm 1 m/s 742 mmHg 62%
    19:00 +24°C° 0 mm 1 m/s 742 mmHg 66%
    20:00 +22°C° 0 mm 1 m/s 742 mmHg 70%
    21:00 +18°C° 0 mm 0 m/s 741 mmHg 74%
    22:00 +20°C° 0 mm 1 m/s 741 mmHg 75%
    23:00 +19°C° 0 mm 1 m/s 741 mmHg 77%

    Demain, 23 Juillet, Mardi

    Heure Température Précipitation Vent Pression Humidité
    00:00 +18°C° 0 mm 2 m/s 741 mmHg 78%
    01:00 +18°C° 0.2 mm 2 m/s 741 mmHg 82%
    02:00 +19°C° 0.2 mm 1 m/s 741 mmHg 86%
    03:00 +18°C° 0.2 mm 1 m/s 740 mmHg 90%
    04:00 +18°C° 0.6 mm 1 m/s 740 mmHg 91%
    05:00 +17°C° 0.6 mm 2 m/s 740 mmHg 93%
    06:00 +17°C° 0.6 mm 2 m/s 740 mmHg 94%
    07:00 +17°C° 0.2 mm 3 m/s 740 mmHg 93%
    08:00 +18°C° 0.2 mm 4 m/s 740 mmHg 91%
    09:00 +18°C° 0.2 mm 4 m/s 739 mmHg 90%
    10:00 +19°C° 0.1 mm 4 m/s 739 mmHg 85%
    11:00 +20°C° 0.1 mm 5 m/s 740 mmHg 81%
    12:00 +22°C° 0.1 mm 5 m/s 740 mmHg 77%
    13:00 +22°C° 0.7 mm 5 m/s 739 mmHg 76%
    14:00 +22°C° 0.7 mm 5 m/s 739 mmHg 76%
    15:00 +23°C° 0.7 mm 5 m/s 739 mmHg 75%
    16:00 +23°C° 0.7 mm 4 m/s 739 mmHg 77%
    17:00 +24°C° 0.7 mm 3 m/s 739 mmHg 79%
    18:00 +24°C° 0.7 mm 3 m/s 739 mmHg 80%
    19:00 +21°C° 0.8 mm 2 m/s 739 mmHg 84%
    20:00 +20°C° 0.8 mm 2 m/s 739 mmHg 88%
    21:00 +19°C° 0.8 mm 2 m/s 738 mmHg 93%
    22:00 +18°C° 0 mm 2 m/s 738 mmHg 93%
    23:00 +19°C° 0 mm 1 m/s 739 mmHg 93%

    Après-demain, 24 Juillet, Mercredi

    Heure Température Précipitation Vent Pression Humidité
    00:00 +19°C° 0 mm 1 m/s 739 mmHg 93%
    01:00 +18°C° 0 mm 1 m/s 738 mmHg 94%
    02:00 +18°C° 0 mm 1 m/s 738 mmHg 94%
    03:00 +18°C° 0 mm 1 m/s 738 mmHg 94%
    04:00 +18°C° 0 mm 1 m/s 738 mmHg 93%
    05:00 +18°C° 0 mm 1 m/s 738 mmHg 93%
    06:00 +19°C° 0 mm 1 m/s 738 mmHg 92%
    07:00 +19°C° 0.2 mm 1 m/s 738 mmHg 93%
    08:00 +19°C° 0.2 mm 1 m/s 738 mmHg 93%
    09:00 +19°C° 0.2 mm 1 m/s 738 mmHg 94%
    10:00 +19°C° 0.4 mm 2 m/s 739 mmHg 89%
    11:00 +21°C° 0.4 mm 2 m/s 739 mmHg 83%
    12:00 +22°C° 0.4 mm 3 m/s 739 mmHg 78%
    13:00 +21°C° 1.1 mm 2 m/s 739 mmHg 80%
    14:00 +21°C° 1.1 mm 2 m/s 739 mmHg 83%
    15:00 +21°C° 1.1 mm 1 m/s 739 mmHg 85%
    16:00 +21°C° 0.2 mm 1 m/s 739 mmHg 86%
    17:00 +20°C° 0.2 mm 2 m/s 739 mmHg 87%
    18:00 +20°C° 0.2 mm 2 m/s 739 mmHg 88%
    19:00 +19°C° 0.2 mm 2 m/s 739 mmHg 88%
    20:00 +19°C° 0.2 mm 2 m/s 739 mmHg 88%
    21:00 +19°C° 0.2 mm 1 m/s 739 mmHg 89%
    22:00 +18°C° 0.3 mm 2 m/s 740 mmHg 90%
    23:00 +18°C° 0.3 mm 3 m/s 740 mmHg 90%

    25 Juillet, Jeudi

    Heure Température Précipitation Vent Pression Humidité
    00:00 +18°C° 0.3 mm 4 m/s 740 mmHg 91%
    01:00 +18°C° 0 mm 4 m/s 740 mmHg 91%
    02:00 +18°C° 0 mm 4 m/s 740 mmHg 90%
    03:00 +18°C° 0 mm 4 m/s 740 mmHg 90%
    04:00 +18°C° 0 mm 4 m/s 740 mmHg 90%
    05:00 +18°C° 0 mm 3 m/s 741 mmHg 91%
    06:00 +18°C° 0 mm 2 m/s 741 mmHg 91%
    07:00 +18°C° 0 mm 2 m/s 741 mmHg 89%
    08:00 +19°C° 0 mm 2 m/s 741 mmHg 87%
    09:00 +19°C° 0 mm 3 m/s 742 mmHg 85%
    10:00 +21°C° 0 mm 2 m/s 742 mmHg 79%
    11:00 +23°C° 0 mm 2 m/s 742 mmHg 73%
    12:00 +25°C° 0 mm 2 m/s 743 mmHg 68%
    13:00 +25°C° 0.5 mm 3 m/s 743 mmHg 67%
    14:00 +26°C° 0.5 mm 3 m/s 742 mmHg 66%
    15:00 +26°C° 0.5 mm 4 m/s 742 mmHg 65%
    16:00 +26°C° 0.8 mm 4 m/s 742 mmHg 68%
    17:00 +25°C° 0.8 mm 4 m/s 742 mmHg 72%
    18:00 +25°C° 0.8 mm 4 m/s 742 mmHg 76%
    19:00 +22°C° 0.1 mm 3 m/s 742 mmHg 79%
    20:00 +21°C° 0.1 mm 3 m/s 742 mmHg 81%
    21:00 +20°C° 0.1 mm 2 m/s 742 mmHg 84%
    22:00 +19°C° 0.1 mm 2 m/s 742 mmHg 86%
    23:00 +19°C° 0.1 mm 2 m/s 743 mmHg 88%

    26 Juillet, Vendredi

    Heure Température Précipitation Vent Pression Humidité
    00:00 +18°C° 0.1 mm 2 m/s 743 mmHg 90%
    01:00 +18°C° 0 mm 2 m/s 742 mmHg 92%
    02:00 +17°C° 0 mm 2 m/s 742 mmHg 93%
    03:00 +17°C° 0 mm 2 m/s 742 mmHg 94%
    04:00 +17°C° 0 mm 2 m/s 742 mmHg 94%
    05:00 +17°C° 0 mm 3 m/s 742 mmHg 94%
    06:00 +17°C° 0 mm 3 m/s 742 mmHg 94%
    07:00 +19°C° 0 mm 4 m/s 742 mmHg 89%
    08:00 +20°C° 0 mm 4 m/s 742 mmHg 84%
    09:00 +22°C° 0 mm 5 m/s 742 mmHg 79%
    10:00 +22°C° 0 mm 5 m/s 742 mmHg 73%
    11:00 +23°C° 0 mm 6 m/s 742 mmHg 68%
    12:00 +24°C° 0 mm 6 m/s 741 mmHg 62%
    13:00 +24°C° 0 mm 6 m/s 741 mmHg 62%
    14:00 +26°C° 0 mm 6 m/s 741 mmHg 62%
    15:00 +26°C° 0 mm 6 m/s 741 mmHg 62%
    16:00 +25°C° 0.2 mm 5 m/s 740 mmHg 65%
    17:00 +23°C° 0.2 mm 5 m/s 740 mmHg 67%
    18:00 +23°C° 0.2 mm 4 m/s 740 mmHg 70%
    19:00 +21°C° 0 mm 4 m/s 740 mmHg 73%
    20:00 +20°C° 0 mm 4 m/s 740 mmHg 76%
    21:00 +19°C° 0 mm 4 m/s 740 mmHg 79%
    22:00 +18°C° 0 mm 4 m/s 740 mmHg 80%
    23:00 +17°C° 0 mm 4 m/s 740 mmHg 80%

    27 Juillet, Samedi

    Heure Température Précipitation Vent Pression Humidité
    00:00 +15°C° 0 mm 4 m/s 740 mmHg 81%
    01:00 +15°C° 0 mm 4 m/s 740 mmHg 85%
    02:00 +14°C° 0 mm 4 m/s 740 mmHg 89%
    03:00 +14°C° 0 mm 4 m/s 740 mmHg 93%
    04:00 +14°C° 0 mm 4 m/s 740 mmHg 93%
    05:00 +14°C° 0 mm 5 m/s 740 mmHg 93%
    06:00 +14°C° 0 mm 5 m/s 740 mmHg 93%
    07:00 +15°C° 0 mm 5 m/s 740 mmHg 87%
    08:00 +16°C° 0 mm 5 m/s 740 mmHg 81%
    09:00 +17°C° 0 mm 5 m/s 740 mmHg 75%
    10:00 +19°C° 0 mm 6 m/s 740 mmHg 71%
    11:00 +20°C° 0 mm 6 m/s 740 mmHg 67%
    12:00 +20°C° 0 mm 6 m/s 740 mmHg 63%
    13:00 +21°C° 0 mm 6 m/s 739 mmHg 63%
    14:00 +21°C° 0 mm 6 m/s 739 mmHg 62%
    15:00 +21°C° 0 mm 6 m/s 738 mmHg 62%
    16:00 +21°C° 0 mm 5 m/s 738 mmHg 63%
    17:00 +21°C° 0 mm 5 m/s 738 mmHg 65%
    18:00 +21°C° 0 mm 4 m/s 738 mmHg 66%
    19:00 +20°C° 0 mm 4 m/s 738 mmHg 70%
    20:00 +18°C° 0 mm 4 m/s 738 mmHg 75%
    21:00 +17°C° 0 mm 3 m/s 737 mmHg 79%
    22:00 +16°C° 0 mm 3 m/s 737 mmHg 79%
    23:00 +16°C° 0 mm 2 m/s 737 mmHg 79%
    Voir plus